Temperature
24 21 20 21 21 21 21 21 21 22 23 22 21 21 21 21 21 21 21 21 21 20 20 19 19 18 18 17 17 16 16 15 15 14 14 14 14 13 13 13 13 13 13 13
21 21 22 22 22 22 22 22 21 22 23 23 21 21 21 21 21 21 21 21 21 20 19 19 19 18 18 17 17 16 16 15 15 14 14 14 13 13 13 13 13 13 13 13
20 21 23 23 23 22 22 21 22 22 23 23 22 20 21 21 21 21 22 21 21 20 20 19 19 18 18 17 16 16 15 15 15 14 14 14 13 13 13 13 13 13 13 12
21 22 23 23 23 23 22 23 23 23 22 20 22 19 20 20 20 20 20 21 21 20 20 19 19 18 17 17 16 16 15 15 14 14 14 13 13 13 13 13 13 12 12 12
21 22 22 23 23 23 22 24 24 23 22 20 20 19 19 20 20 20 19 20 21 20 20 19 19 18 17 17 16 16 15 15 14 14 14 13 13 13 13 12 12 12 12 12
21 22 22 23 23 24 24 22 21 18 18 19 20 19 20 18 19 19 19 20 20 20 20 19 19 18 17 17 16 16 15 15 14 14 14 13 13 13 13 12 12 12 12 12
21 22 23 23 23 24 22 20 19 19 18 19 20 19 19 20 20 19 19 20 20 20 20 19 19 18 17 17 16 16 15 15 14 14 14 13 13 13 12 12 12 12 12 12
20 20 22 23 23 23 22 20 19 19 19 19 19 20 19 21 21 22 22 21 21 20 20 19 19 18 18 17 16 16 15 15 15 14 14 13 13 13 13 12 12 12 12 12
20 21 23 24 24 23 23 20 19 18 19 19 19 20 21 21 20 20 20 21 21 20 20 20 19 18 18 17 17 16 16 15 15 14 14 13 13 13 13 12 12 12 12 12
21 21 22 23 24 24 22 20 18 18 19 19 20 20 18 20 19 19 19 20 21 20 20 19 19 18 18 17 17 16 16 15 15 14 14 14 13 13 13 13 12 12 12 12
21 20 21 22 23 23 23 23 19 16 17 18 19 19 19 19 19 19 19 21 21 21 20 20 19 19 18 17 17 16 16 15 15 14 14 14 13 13 13 13 12 12 12 12
20 19 19 21 22 22 22 22 19 19 19 17 17 18 20 19 20 20 21 22 21 21 20 20 19 19 18 17 17 16 16 15 15 15 14 14 14 13 13 13 13 12 12 12
20 19 19 20 20 22 23 22 19 17 17 16 17 19 20 20 20 21 22 21 21 21 20 20 19 19 18 18 17 17 16 16 15 15 14 14 14 13 13 13 13 12 12 12
20 19 19 20 20 21 22 23 21 18 17 18 19 20 21 20 20 20 21 21 21 21 20 20 19 19 18 18 17 17 16 16 15 15 14 14 14 13 13 13 13 13 12 12
19 20 21 21 21 22 22 22 22 20 19 18 19 20 20 20 19 21 21 21 21 20 20 20 19 19 18 18 17 17 16 16 15 15 15 14 14 14 13 13 13 13 13 12
19 21 21 21 22 22 22 22 21 21 21 20 20 20 20 21 21 21 21 21 21 20 20 20 19 19 18 18 18 17 17 16 16 15 15 14 14 14 14 13 13 13 13 13
19 19 20 19 20 21 21 22 22 21 21 20 20 20 20 20 20 21 22 21 21 21 20 20 19 19 19 18 18 17 17 16 16 15 15 15 14 14 14 14 13 13 13 13
19 18 17 18 20 21 20 21 22 22 22 21 21 20 20 21 22 22 22 22 21 21 20 20 19 19 18 18 18 17 17 16 16 16 15 15 15 14 14 14 13 13 13 13
18 18 17 17 19 19 20 22 22 22 22 21 20 20 21 21 21 20 21 22 21 21 20 20 19 19 18 18 17 17 17 16 16 16 15 15 15 14 14 14 13 13 13 13
17 17 17 17 19 19 20 22 23 22 21 21 21 20 20 20 17 18 21 21 21 20 20 19 19 18 18 17 17 17 17 16 16 15 15 15 14 14 14 14 14 13 13 13
19 17 17 16 17 18 19 22 22 21 20 22 22 22 21 20 20 21 21 21 20 20 19 19 18 18 17 17 17 17 16 16 15 15 15 15 14 14 14 14 14 13 13 13
17 17 16 15 17 18 20 22 20 20 22 23 23 23 23 22 22 21 21 20 20 19 19 18 18 17 17 17 17 16 16 16 15 15 15 15 14 14 14 14 14 14 13 13
17 17 16 16 18 20 22 23 24 24 23 23 23 23 23 22 21 21 20 20 19 19 18 18 18 17 17 16 16 16 16 16 15 15 15 15 14 14 14 14 14 14 14 13
17 18 17 17 18 20 22 23 23 24 24 23 23 23 22 22 21 20 20 19 19 19 18 18 17 17 17 16 16 16 16 15 15 15 15 15 14 14 14 14 14 14 14 13
18 18 17 17 18 20 21 22 23 23 23 23 22 22 22 22 21 20 20 19 19 18 18 17 17 17 16 16 16 16 16 15 15 15 15 14 14 14 14 14 13 13 13 13
17 18 17 17 19 18 21 23 23 22 22 22 22 21 21 21 21 20 20 19 19 18 17 17 17 16 16 16 16 16 15 15 15 15 14 14 14 13 13 13 13 13 13 13
Wind_Speed
4 4 4 7 7 7 5 4 5 7 6 7 9 10 10 8 9 8 7 7 7 7 6 7 7 8 7 5 5 4 3 1 1 1 1 2 3 3 3 3 4 5 5 5
2 5 8 6 5 5 4 3 4 6 5 6 6 7 5 5 9 10 11 9 8 8 7 6 6 6 6 5 4 3 2 1 1 1 2 2 2 3 3 4 5 6 5 5
8 6 6 6 6 5 5 6 6 6 3 3 1 6 3 1 3 5 7 8 9 11 11 8 7 6 6 5 4 3 2 2 0 0 1 2 2 3 3 4 4 5 5 5
5 7 5 6 6 5 5 8 7 5 1 4 1 2 5 2 4 5 6 7 8 9 9 9 8 7 6 5 4 4 3 1 0 0 1 1 2 2 4 4 4 6 5 5
5 4 5 6 6 6 8 7 4 2 2 3 1 3 6 1 5 6 6 7 8 9 10 10 9 8 7 5 4 4 3 1 1 1 0 1 1 2 3 4 5 5 5 5
4 3 5 7 5 6 3 3 6 6 5 2 4 5 5 5 7 7 6 7 8 8 9 8 7 7 5 4 4 3 2 1 1 1 1 0 1 3 4 5 5 5 5 5
3 3 3 4 2 1 4 6 5 6 5 5 2 4 6 5 6 8 9 9 8 9 9 8 8 7 7 6 5 3 3 1 2 1 1 1 1 2 3 4 4 5 4 4
2 4 5 4 7 5 4 9 6 4 4 5 4 1 4 3 5 7 8 8 8 9 8 9 10 9 7 7 5 4 3 2 2 1 2 2 1 1 2 4 4 4 4 5
4 4 4 4 4 7 5 4 7 6 1 1 3 2 3 1 3 5 6 6 8 9 9 9 9 8 7 6 6 5 4 3 2 1 1 1 2 2 3 4 4 4 4 4
4 1 3 2 3 2 6 8 6 4 2 1 3 3 5 8 8 6 6 7 7 7 8 8 8 7 6 6 5 5 4 3 2 1 0 0 2 2 3 3 5 5 5 5
3 2 3 2 3 5 2 3 5 5 5 5 2 6 6 10 9 9 9 8 8 8 8 8 7 7 6 5 5 5 4 2 2 1 0 1 2 2 3 4 4 5 4 5
2 4 2 5 5 5 5 6 6 4 2 5 4 7 6 8 9 9 8 7 7 7 8 8 7 6 5 5 5 5 4 3 3 2 1 0 1 2 3 4 5 4 5 5
3 5 3 5 6 3 2 5 6 6 5 5 4 6 4 3 5 6 7 7 6 6 6 6 5 6 6 5 5 5 4 4 3 2 2 0 1 2 3 4 4 4 5 5
4 3 5 6 7 5 4 5 5 7 4 4 7 7 4 6 7 7 7 8 7 7 7 7 6 6 6 5 6 5 4 4 4 3 2 1 1 2 2 3 4 4 4 5
4 3 4 6 6 4 6 8 7 7 9 9 8 8 9 9 10 9 8 7 7 6 6 7 7 6 6 5 5 4 4 4 4 3 2 2 2 1 2 3 4 4 4 4
3 3 1 4 5 4 5 8 9 8 7 8 6 7 7 6 5 6 8 8 8 7 7 7 7 7 6 6 6 4 4 3 3 3 2 2 1 1 2 3 3 4 4 5
2 4 2 4 6 3 5 8 9 7 7 9 10 10 5 6 8 9 9 9 8 7 7 7 6 6 7 7 6 6 5 4 4 3 2 2 1 2 2 3 3 3 4 4
6 5 4 2 2 5 9 7 7 7 7 8 7 7 10 9 7 6 8 9 8 7 7 6 6 5 4 4 5 5 4 4 4 3 3 3 2 2 3 2 3 3 3 3
6 7 4 3 2 7 9 6 4 5 5 5 8 7 7 7 6 2 2 7 7 7 6 5 5 5 4 5 5 5 4 3 3 3 4 4 3 3 3 3 4 3 2 3
5 6 5 4 3 6 9 7 2 5 3 5 7 9 9 8 5 5 4 6 6 6 5 5 5 5 5 4 5 6 4 3 2 4 4 4 3 3 4 4 4 3 2 3
2 3 4 5 5 8 9 5 3 4 8 4 7 9 10 9 7 6 7 6 6 6 6 6 7 5 4 4 6 5 3 2 4 3 3 3 3 4 4 4 3 3 3 3
7 5 5 5 4 9 6 4 7 9 4 4 7 7 8 7 7 8 8 8 8 6 6 7 7 5 3 4 6 5 1 3 2 1 1 2 3 4 3 3 4 3 3 3
6 8 7 9 9 8 5 7 6 6 6 6 7 7 10 9 8 8 8 8 7 7 6 6 7 6 3 2 4 3 2 1 1 0 1 2 3 3 3 3 4 3 3 3
5 2 3 4 7 6 5 4 4 6 7 7 8 8 10 9 9 9 8 7 7 6 6 6 7 6 3 2 3 1 0 1 2 1 2 3 3 4 4 3 3 3 3 3
6 2 1 4 6 4 6 6 6 5 5 6 7 7 9 11 9 9 8 8 7 6 5 6 6 6 4 3 3 3 2 2 2 1 2 3 3 3 4 4 3 3 3 3
6 6 6 8 9 7 9 9 8 8 8 8 8 7 7 9 10 9 8 7 7 7 6 7 7 6 4 4 3 3 3 3 3 2 3 3 3 3 3 4 5 5 5 6
Wind_Direction
195 139 202 217 194 184 190 218 261 265 222 200 228 247 249 211 193 187 177 175 168 164 156 146 143 135 126 118 112 112 108 91 63 21 346 328 316 309 316 312 313 317 317 321
91 216 216 192 182 184 197 233 261 271 241 209 244 272 268 205 191 181 176 175 163 147 144 145 142 135 132 133 129 121 107 94 71 231 243 245 264 281 286 302 316 317 313 313
190 219 199 185 215 205 224 215 223 243 311 331 34 342 339 332 142 150 161 161 156 158 160 159 150 146 143 147 149 134 135 131 128 271 312 338 344 334 331 322 316 310 312 312
223 238 221 207 220 196 231 226 220 221 84 292 115 266 286 235 140 155 164 158 160 159 159 160 156 155 161 168 156 147 155 168 255 20 25 338 325 309 289 290 297 309 312 312
234 204 190 208 219 202 217 224 225 232 161 316 298 158 283 161 169 191 188 175 170 167 165 167 167 165 167 166 159 162 162 187 307 351 32 16 319 284 293 301 310 315 312 306
243 240 188 194 213 209 197 48 29 45 71 313 249 156 235 221 200 188 190 183 173 168 167 166 164 157 162 168 163 162 159 242 301 344 356 198 303 306 319 319 320 319 313 309
318 300 234 170 156 308 92 79 22 1 12 263 263 138 233 243 192 176 180 188 184 174 165 163 164 168 174 178 180 173 167 230 277 309 310 284 277 298 307 305 310 316 316 311
177 269 238 193 172 179 163 136 154 195 233 285 354 152 255 258 180 170 173 181 184 183 178 177 180 180 185 190 186 180 183 217 256 280 294 291 288 292 295 299 302 304 301 298
183 249 278 230 179 148 137 153 168 143 198 306 334 348 316 283 189 184 185 186 194 193 187 186 186 185 187 190 190 187 186 208 240 265 300 296 298 304 308 312 313 308 307 310
173 219 284 278 79 83 147 148 97 109 140 308 315 235 224 223 223 220 207 206 210 200 192 187 186 189 192 192 189 183 182 193 210 226 295 333 314 312 312 325 327 322 321 323
150 137 310 8 178 190 136 118 111 120 150 154 244 265 228 203 204 200 208 207 201 193 190 189 191 191 188 179 174 181 186 177 181 193 204 18 333 327 331 333 327 325 328 333
132 129 227 264 276 205 173 176 145 146 211 161 177 264 268 202 197 190 197 197 192 187 186 186 185 181 178 176 179 186 188 179 191 192 167 351 331 342 343 335 331 336 339 338
110 114 80 356 340 344 188 180 153 134 126 154 172 263 299 194 200 202 191 189 185 179 177 176 178 182 188 187 188 191 191 189 186 172 153 37 348 350 340 330 331 339 341 343
118 125 159 183 218 224 231 228 168 133 157 208 216 235 252 212 205 205 197 190 184 182 178 178 187 197 197 191 191 192 199 191 177 166 158 202 284 304 320 327 336 339 341 348
127 166 210 228 238 217 220 229 207 187 189 192 224 217 230 217 205 201 194 185 181 185 187 188 193 199 197 192 196 193 191 185 171 162 179 227 255 292 324 335 337 340 345 348
127 169 288 299 284 275 251 239 221 217 209 208 213 237 235 207 178 175 177 175 180 189 191 191 191 188 192 194 196 187 186 184 163 163 194 227 258 298 309 315 331 343 342 340
152 147 141 276 301 359 280 239 216 216 212 191 209 224 194 171 181 182 182 180 185 189 187 183 184 189 195 197 190 187 191 176 163 174 199 214 232 273 289 307 334 333 327 334
161 140 146 225 358 253 250 257 218 215 235 208 196 193 182 183 185 182 176 171 176 176 172 173 174 174 179 179 176 176 168 163 170 188 211 222 227 259 283 304 309 309 311 320
162 146 138 144 227 276 289 278 198 183 260 226 183 178 169 138 89 21 201 163 166 167 165 168 168 159 155 158 158 145 149 158 171 207 223 227 222 241 269 282 285 285 294 308
87 106 125 136 181 246 255 271 219 111 281 268 172 163 156 130 136 229 205 146 135 133 139 141 135 124 133 148 135 126 142 156 209 230 233 232 222 229 248 262 271 271 265 277
88 81 144 177 214 259 255 263 93 149 234 237 172 162 159 173 190 185 154 137 133 131 133 131 123 122 141 145 125 121 133 215 245 242 237 244 242 241 247 261 272 274 275 292
187 178 195 163 194 252 248 157 179 213 209 167 160 159 156 161 147 141 142 141 137 129 124 126 120 119 121 126 121 121 181 254 243 215 249 273 272 272 270 267 281 286 281 286
200 194 193 191 214 240 225 204 206 171 168 174 164 161 146 143 152 152 151 150 147 141 137 129 126 119 100 105 116 128 262 273 170 87 306 300 305 301 297 278 281 291 287 277
279 189 169 247 264 261 246 213 184 176 173 171 165 160 152 152 156 152 151 153 151 147 142 132 124 120 108 84 83 99 349 100 104 57 325 321 320 315 315 306 295 291 288 282
251 294 278 271 279 301 279 236 204 183 163 154 154 160 159 151 154 156 155 156 154 147 142 132 129 127 117 90 61 30 26 76 82 31 350 341 334 323 320 316 293 281 269 254
224 209 209 239 237 218 239 234 205 185 184 174 161 156 158 156 156 155 156 157 150 144 135 127 124 121 111 90 60 26 30 70 78 31 355 345 341 336 335 333 332 317 305 311
Height
1511 1517 1523 1521 1520 1523 1526 1529 1530 1523 1514 1518 1520 1517 1512 1511 1514 1515 1517 1518 1519 1520 1522 1523 1524 1524 1524 1523 1522 1521 1519 1518 1516 1514 1511 1509 1507 1504 1502 1500 1498 1496 1494 1492
1515 1519 1514 1513 1516 1519 1522 1527 1527 1519 1512 1515 1518 1517 1511 1509 1510 1512 1514 1516 1517 1519 1521 1522 1523 1523 1522 1522 1521 1519 1518 1517 1515 1513 1510 1508 1506 1503 1501 1499 1496 1494 1492 1489
1516 1513 1509 1513 1516 1519 1521 1525 1523 1521 1514 1513 1517 1523 1515 1511 1511 1513 1514 1515 1516 1517 1519 1520 1521 1521 1521 1520 1520 1518 1517 1515 1514 1512 1509 1507 1505 1502 1500 1497 1495 1492 1490 1488
1512 1508 1508 1512 1514 1515 1522 1513 1513 1514 1522 1528 1522 1538 1523 1515 1514 1514 1514 1515 1515 1516 1517 1519 1519 1520 1520 1519 1518 1517 1516 1514 1513 1510 1508 1506 1503 1501 1498 1495 1493 1490 1488 1486
1510 1506 1508 1511 1510 1509 1513 1506 1509 1511 1519 1527 1525 1535 1531 1518 1518 1516 1514 1514 1515 1515 1516 1517 1518 1518 1518 1518 1517 1516 1515 1513 1512 1510 1507 1505 1502 1500 1497 1494 1491 1489 1486 1484
1506 1503 1503 1504 1503 1504 1504 1509 1514 1522 1528 1539 1526 1534 1531 1523 1516 1514 1514 1514 1514 1515 1516 1516 1517 1517 1517 1517 1516 1515 1514 1512 1511 1509 1506 1504 1501 1498 1496 1493 1490 1487 1484 1482
1510 1505 1501 1500 1505 1504 1508 1524 1542 1542 1550 1543 1524 1529 1528 1512 1509 1509 1511 1512 1513 1514 1514 1515 1515 1516 1516 1516 1515 1514 1513 1512 1510 1508 1506 1503 1500 1498 1495 1491 1488 1485 1483 1480
1520 1519 1503 1498 1502 1507 1510 1522 1543 1551 1552 1543 1528 1530 1522 1509 1507 1508 1509 1510 1511 1512 1513 1513 1514 1514 1514 1514 1514 1513 1512 1511 1509 1507 1505 1502 1500 1497 1494 1491 1488 1485 1482 1479
1518 1516 1499 1495 1495 1500 1509 1518 1520 1535 1537 1543 1537 1526 1516 1510 1510 1509 1509 1510 1510 1510 1511 1512 1512 1513 1513 1513 1513 1512 1511 1510 1508 1506 1504 1502 1499 1497 1494 1491 1487 1484 1481 1478
1506 1513 1503 1497 1496 1498 1502 1509 1524 1534 1544 1550 1539 1532 1530 1515 1512 1509 1509 1508 1508 1509 1510 1510 1511 1511 1512 1512 1512 1511 1510 1509 1507 1505 1503 1501 1499 1496 1493 1490 1487 1484 1481 1478
1502 1512 1509 1503 1504 1505 1505 1508 1520 1534 1539 1548 1548 1537 1509 1507 1505 1506 1505 1505 1506 1507 1507 1508 1509 1510 1510 1511 1510 1510 1509 1508 1506 1505 1503 1501 1498 1496 1493 1490 1487 1484 1481 1477
1502 1512 1517 1509 1499 1497 1500 1505 1516 1531 1534 1539 1545 1534 1500 1500 1500 1501 1502 1503 1504 1505 1506 1507 1508 1509 1509 1509 1509 1509 1508 1507 1505 1504 1502 1500 1498 1496 1493 1490 1487 1484 1481 1477
1501 1512 1524 1522 1514 1503 1501 1501 1508 1518 1529 1537 1541 1527 1500 1500 1500 1500 1501 1502 1503 1504 1505 1506 1507 1507 1508 1508 1508 1508 1507 1506 1505 1503 1502 1500 1498 1495 1493 1490 1487 1484 1481 1478
1498 1509 1518 1524 1517 1507 1504 1500 1502 1514 1527 1528 1524 1516 1503 1500 1499 1499 1499 1500 1501 1502 1503 1504 1505 1506 1506 1507 1507 1506 1506 1505 1504 1503 1501 1499 1497 1495 1493 1490 1488 1485 1482 1478
1498 1507 1504 1503 1499 1498 1499 1499 1499 1505 1511 1517 1512 1507 1500 1496 1495 1496 1497 1498 1500 1501 1501 1502 1503 1504 1505 1505 1505 1505 1505 1504 1503 1502 1501 1499 1497 1495 1493 1490 1488 1485 1482 1479
1497 1502 1502 1502 1497 1496 1497 1495 1496 1498 1499 1502 1502 1500 1490 1491 1492 1494 1495 1496 1497 1498 1499 1500 1501 1502 1503 1504 1504 1504 1504 1503 1502 1501 1500 1498 1497 1495 1493 1490 1488 1486 1483 1480
1499 1503 1508 1513 1502 1499 1505 1493 1492 1492 1489 1492 1498 1493 1488 1490 1491 1491 1492 1494 1495 1496 1497 1499 1500 1500 1501 1502 1502 1502 1502 1502 1501 1500 1499 1498 1496 1494 1492 1490 1488 1486 1483 1481
1497 1504 1512 1514 1509 1515 1500 1482 1482 1484 1483 1482 1482 1482 1484 1485 1487 1489 1490 1491 1493 1494 1496 1497 1498 1499 1500 1501 1501 1501 1501 1501 1500 1499 1498 1497 1495 1494 1492 1490 1488 1486 1484 1481
1489 1499 1510 1517 1516 1510 1493 1480 1478 1482 1483 1477 1479 1480 1482 1485 1487 1489 1490 1490 1492 1493 1494 1496 1497 1498 1499 1499 1500 1500 1500 1500 1499 1498 1497 1496 1494 1493 1491 1489 1487 1486 1484 1482
1490 1494 1507 1515 1514 1515 1494 1477 1473 1478 1486 1476 1475 1478 1481 1483 1492 1490 1488 1489 1491 1492 1494 1495 1496 1497 1498 1498 1499 1499 1499 1498 1498 1497 1496 1495 1494 1492 1490 1488 1487 1485 1483 1481
1497 1500 1507 1513 1513 1504 1481 1474 1475 1492 1488 1474 1474 1475 1478 1480 1482 1484 1486 1488 1490 1491 1493 1494 1495 1496 1497 1497 1498 1498 1497 1497 1497 1496 1495 1494 1492 1491 1489 1487 1486 1484 1482 1481
1497 1503 1506 1511 1513 1503 1473 1474 1478 1477 1471 1472 1473 1474 1476 1477 1480 1482 1484 1487 1489 1490 1492 1493 1494 1495 1495 1496 1496 1496 1496 1496 1495 1494 1493 1492 1491 1489 1488 1486 1484 1483 1481 1479
1490 1489 1490 1492 1489 1473 1469 1469 1468 1469 1470 1471 1472 1473 1475 1477 1479 1481 1483 1485 1487 1489 1490 1491 1492 1493 1494 1495 1495 1495 1494 1494 1493 1492 1491 1490 1489 1488 1486 1484 1482 1481 1479 1477
1482 1479 1482 1482 1475 1469 1467 1467 1467 1468 1468 1469 1471 1472 1474 1475 1477 1480 1482 1484 1486 1487 1488 1490 1491 1492 1492 1493 1493 1493 1493 1492 1491 1490 1489 1488 1487 1485 1484 1482 1480 1479 1477 1475
1479 1478 1480 1479 1472 1469 1467 1466 1466 1467 1467 1468 1470 1471 1472 1474 1476 1478 1480 1482 1484 1485 1487 1488 1489 1490 1491 1491 1491 1491 1491 1490 1489 1488 1487 1486 1484 1483 1481 1480 1478 1477 1475 1474
1473 1474 1477 1475 1467 1467 1464 1463 1464 1464 1464 1466 1467 1469 1471 1472 1474 1476 1478 1479 1481 1483 1485 1486 1487 1488 1489 1489 1489 1489 1489 1488 1487 1486 1485 1484 1482 1481 1479 1477 1476 1475 1473 1472